Location: Ottawa
(45.4167°N, 75.7000°W)
Time: 10:14:58
(UTC-04:00)

ISS - Pass Details

Date: 07 October 2017
Orbit: 401 x 408 km, 51.6° (Epoch: 20 October)

Event Time Altitude Azimuth Distance (km) Brightness Sun altitude
Rises 20:40:52 0° 299° (WNW) 2,330 1.4 -23.4°
Reaches altitude 10° 20:42:59 10° 305° (NW) 1,469 0.0 -23.7°
Enters shadow 20:44:59 31° 324° (NW) 745 -2.1 -24.1°
